• In Hungary
  • List of Countries
  • For 7 days
  • Water Temperature
  • Satellite Maps
  • Weather Map
  • News
  • Weather Widgets
  • user-avatar
    Login

    Hourly Weather Sapporo

    Today, 14 November, Wednesday

    Time Temperature Precipitation Wind Pressure Humidity
    00:00 +4°C° 0 mm 2 mps 759 mmHg 86%
    01:00 +4°C° 0 mm 2 mps 760 mmHg 85%
    02:00 +4°C° 0 mm 2 mps 760 mmHg 84%
    03:00 +4°C° 0 mm 2 mps 759 mmHg 85%
    04:00 +4°C° 0.1 mm 2 mps 759 mmHg 84%
    05:00 +4°C° 0.1 mm 2 mps 760 mmHg 84%
    06:00 +4°C° 0.1 mm 2 mps 760 mmHg 83%
    07:00 +5°C° 0.2 mm 2 mps 760 mmHg 81%
    08:00 +6°C° 0.2 mm 2 mps 760 mmHg 78%
    09:00 +6°C° 0 mm 2 mps 760 mmHg 75%
    10:00 +6°C° 0.3 mm 2 mps 760 mmHg 74%
    11:00 +7°C° 0.3 mm 2 mps 760 mmHg 73%
    12:00 +7°C° 0.3 mm 3 mps 760 mmHg 72%
    13:00 +7°C° 0.2 mm 3 mps 760 mmHg 73%
    14:00 +7°C° 0.2 mm 3 mps 760 mmHg 73%
    15:00 +5°C° 0.2 mm 3 mps 760 mmHg 73%
    16:00 +5°C° 0.1 mm 3 mps 760 mmHg 75%
    17:00 +4°C° 0.1 mm 3 mps 761 mmHg 78%
    18:00 +3°C° 0.1 mm 3 mps 761 mmHg 81%
    19:00 +4°C° 0.1 mm 2 mps 761 mmHg 81%
    20:00 +4°C° 0.1 mm 2 mps 761 mmHg 81%
    21:00 +4°C° 0.1 mm 2 mps 761 mmHg 81%
    22:00 +4°C° 0.1 mm 2 mps 761 mmHg 81%
    23:00 +4°C° 0.1 mm 2 mps 761 mmHg 82%

    Tomorrow, 15 November, Thursday

    Time Temperature Precipitation Wind Pressure Humidity
    00:00 +4°C° 0.1 mm 2 mps 761 mmHg 82%
    01:00 +4°C° 0.1 mm 2 mps 761 mmHg 82%
    02:00 +4°C° 0.1 mm 2 mps 761 mmHg 82%
    03:00 +4°C° 0.1 mm 2 mps 761 mmHg 82%
    04:00 +4°C° 0 mm 2 mps 762 mmHg 83%
    05:00 +4°C° 0 mm 2 mps 762 mmHg 83%
    06:00 +4°C° 0 mm 2 mps 762 mmHg 83%
    07:00 +5°C° 0 mm 2 mps 762 mmHg 80%
    08:00 +6°C° 0 mm 2 mps 762 mmHg 78%
    09:00 +7°C° 0 mm 2 mps 762 mmHg 75%
    10:00 +7°C° 0 mm 3 mps 762 mmHg 73%
    11:00 +8°C° 0 mm 3 mps 762 mmHg 71%
    12:00 +8°C° 0 mm 3 mps 762 mmHg 69%
    13:00 +8°C° 0 mm 3 mps 762 mmHg 70%
    14:00 +8°C° 0 mm 3 mps 762 mmHg 71%
    15:00 +8°C° 0 mm 3 mps 762 mmHg 72%
    16:00 +7°C° 0 mm 2 mps 763 mmHg 76%
    17:00 +5°C° 0 mm 2 mps 763 mmHg 79%
    18:00 +4°C° 0 mm 2 mps 763 mmHg 82%
    19:00 +4°C° 0 mm 2 mps 763 mmHg 83%
    20:00 +5°C° 0 mm 1 mps 763 mmHg 84%
    21:00 +5°C° 0 mm 1 mps 763 mmHg 85%
    22:00 +4°C° 0 mm 2 mps 763 mmHg 86%
    23:00 +4°C° 0 mm 2 mps 763 mmHg 86%

    Day after tomorrow, 16 November, Friday

    Time Temperature Precipitation Wind Pressure Humidity
    00:00 +3°C° 0 mm 2 mps 763 mmHg 87%
    01:00 +3°C° 0 mm 2 mps 763 mmHg 87%
    02:00 +3°C° 0 mm 2 mps 762 mmHg 88%
    03:00 +3°C° 0 mm 2 mps 762 mmHg 89%
    04:00 +3°C° 0 mm 2 mps 762 mmHg 88%
    05:00 +3°C° 0 mm 2 mps 762 mmHg 88%
    06:00 +3°C° 0 mm 2 mps 762 mmHg 88%
    07:00 +4°C° 0 mm 3 mps 761 mmHg 85%
    08:00 +5°C° 0 mm 3 mps 761 mmHg 83%
    09:00 +7°C° 0 mm 3 mps 761 mmHg 81%
    10:00 +8°C° 0.2 mm 3 mps 760 mmHg 80%
    11:00 +8°C° 0.2 mm 4 mps 760 mmHg 80%
    12:00 +10°C° 0.2 mm 4 mps 759 mmHg 80%
    13:00 +8°C° 0.6 mm 4 mps 759 mmHg 82%
    14:00 +8°C° 0.6 mm 4 mps 759 mmHg 84%
    15:00 +8°C° 0.6 mm 4 mps 758 mmHg 86%
    16:00 +8°C° 0.3 mm 4 mps 758 mmHg 86%
    17:00 +7°C° 0.3 mm 4 mps 758 mmHg 86%
    18:00 +7°C° 0.3 mm 4 mps 758 mmHg 86%
    19:00 +7°C° 1 mm 4 mps 758 mmHg 88%
    20:00 +6°C° 1 mm 5 mps 758 mmHg 90%
    21:00 +5°C° 1 mm 5 mps 758 mmHg 92%
    22:00 +5°C° 0.6 mm 5 mps 758 mmHg 89%
    23:00 +3°C° 0.6 mm 5 mps 758 mmHg 86%

    17 November, Saturday

    Time Temperature Precipitation Wind Pressure Humidity
    00:00 +2°C° 0.6 mm 5 mps 759 mmHg 83%
    01:00 +1°C° 0 mm 5 mps 759 mmHg 82%
    02:00 0°C° 0 mm 4 mps 759 mmHg 82%
    03:00 0°C° 0 mm 4 mps 760 mmHg 81%
    04:00 -1°C° 0.1 mm 4 mps 760 mmHg 82%
    05:00 -1°C° 0.1 mm 4 mps 761 mmHg 82%
    06:00 -1°C° 0.1 mm 4 mps 761 mmHg 82%
    07:00 -1°C° 0.1 mm 4 mps 761 mmHg 79%
    08:00 0°C° 0.1 mm 4 mps 761 mmHg 76%
    09:00 +1°C° 0.1 mm 4 mps 762 mmHg 73%
    10:00 +1°C° 0.1 mm 4 mps 761 mmHg 71%
    11:00 +1°C° 0.1 mm 4 mps 761 mmHg 69%
    12:00 +2°C° 0.1 mm 5 mps 761 mmHg 67%
    13:00 +2°C° 0.1 mm 5 mps 761 mmHg 68%
    14:00 +3°C° 0.1 mm 4 mps 761 mmHg 69%
    15:00 +1°C° 0.1 mm 4 mps 761 mmHg 70%
    16:00 +1°C° 0.1 mm 4 mps 761 mmHg 73%
    17:00 +2°C° 0.1 mm 3 mps 761 mmHg 75%
    18:00 +1°C° 0.1 mm 3 mps 761 mmHg 78%
    19:00 +1°C° 0.1 mm 3 mps 761 mmHg 79%
    20:00 +1°C° 0.1 mm 3 mps 761 mmHg 79%
    21:00 +1°C° 0.1 mm 3 mps 761 mmHg 79%
    22:00 +1°C° 0.1 mm 3 mps 761 mmHg 80%
    23:00 +1°C° 0.1 mm 3 mps 761 mmHg 80%

    18 November, Sunday

    Time Temperature Precipitation Wind Pressure Humidity
    00:00 +1°C° 0.1 mm 3 mps 760 mmHg 81%
    01:00 +1°C° 0.1 mm 3 mps 760 mmHg 81%
    02:00 +1°C° 0.1 mm 3 mps 760 mmHg 81%
    03:00 +2°C° 0.1 mm 3 mps 760 mmHg 81%
    04:00 +2°C° 0.1 mm 3 mps 760 mmHg 81%
    05:00 +2°C° 0.1 mm 3 mps 760 mmHg 81%
    06:00 +2°C° 0.1 mm 3 mps 760 mmHg 81%
    07:00 +3°C° 0 mm 3 mps 760 mmHg 77%
    08:00 +4°C° 0 mm 3 mps 760 mmHg 73%
    09:00 +4°C° 0 mm 4 mps 761 mmHg 70%
    10:00 +5°C° 0.1 mm 4 mps 760 mmHg 67%
    11:00 +5°C° 0.1 mm 5 mps 760 mmHg 64%
    12:00 +6°C° 0.1 mm 5 mps 760 mmHg 61%
    13:00 +6°C° 0 mm 5 mps 760 mmHg 63%
    14:00 +5°C° 0 mm 5 mps 760 mmHg 65%
    15:00 +5°C° 0 mm 5 mps 760 mmHg 68%
    16:00 +4°C° 0 mm 4 mps 760 mmHg 71%
    17:00 +3°C° 0 mm 4 mps 760 mmHg 74%
    18:00 +1°C° 0 mm 4 mps 761 mmHg 78%
    19:00 +2°C° 0 mm 3 mps 761 mmHg 79%
    20:00 +1°C° 0 mm 3 mps 761 mmHg 80%
    21:00 +1°C° 0 mm 3 mps 761 mmHg 80%
    22:00 +1°C° 0 mm 3 mps 761 mmHg 81%
    23:00 +1°C° 0 mm 3 mps 761 mmHg 81%

    19 November, Monday

    Time Temperature Precipitation Wind Pressure Humidity
    00:00 +2°C° 0 mm 2 mps 761 mmHg 81%
    01:00 +2°C° 0 mm 2 mps 761 mmHg 81%
    02:00 +2°C° 0 mm 2 mps 761 mmHg 81%
    03:00 +2°C° 0 mm 2 mps 761 mmHg 81%
    04:00 +2°C° 0 mm 2 mps 761 mmHg 81%
    05:00 +2°C° 0 mm 2 mps 761 mmHg 80%
    06:00 +2°C° 0 mm 2 mps 761 mmHg 80%
    07:00 +3°C° 0 mm 2 mps 761 mmHg 77%
    08:00 +5°C° 0 mm 1 mps 761 mmHg 73%
    09:00 +6°C° 0 mm 1 mps 761 mmHg 70%
    10:00 +6°C° 0 mm 1 mps 761 mmHg 68%
    11:00 +7°C° 0 mm 1 mps 760 mmHg 65%
    12:00 +8°C° 0 mm 1 mps 760 mmHg 62%
    13:00 +7°C° 0 mm 1 mps 760 mmHg 65%
    14:00 +7°C° 0 mm 1 mps 760 mmHg 67%
    15:00 +7°C° 0 mm 1 mps 760 mmHg 69%
    16:00 +6°C° 0 mm 1 mps 760 mmHg 72%
    17:00 +5°C° 0 mm 1 mps 761 mmHg 75%
    18:00 +4°C° 0 mm 1 mps 761 mmHg 78%
    19:00 +2°C° 0 mm 2 mps 761 mmHg 79%
    20:00 +2°C° 0 mm 2 mps 761 mmHg 80%
    21:00 +2°C° 0 mm 2 mps 761 mmHg 81%
    22:00 +2°C° 0 mm 2 mps 761 mmHg 81%
    23:00 +2°C° 0 mm 2 mps 762 mmHg 81%
    Show more